| time (UTC) | temp F | wind direction | speed MPH | gust MPH | rain 1hr in | rain 24hr in | rain mn in | humidity % | barometer mb |
| 20260506231534 | 62 | 87 | 3.0 | 11.0 | 0.00 | 0.01 | 0.01 | 74 | 1014.2 |
| 20260506231018 | 62 | 53 | 4.0 | 8.0 | 0.00 | 0.01 | 0.01 | 74 | 1013.9 |
| 20260506230518 | 62 | 74 | 3.0 | 8.0 | 0.00 | 0.01 | 0.01 | 74 | 1014.1 |
| 20260506230038 | 63 | 352 | 2.0 | 8.0 | 0.00 | 0.01 | 0.01 | 73 | 1014.0 |
| 20260506225522 | 63 | 34 | 1.0 | 8.0 | 0.00 | 0.01 | 0.01 | 73 | 1014.0 |
| 20260506225022 | 63 | 36 | 3.0 | 8.0 | 0.00 | 0.01 | 0.01 | 73 | 1014.1 |
| 20260506224538 | 62 | 0 | 2.0 | 10.0 | 0.00 | 0.01 | 0.01 | 74 | 1013.9 |
| 20260506224020 | 62 | 360 | 2.0 | 10.0 | 0.00 | 0.01 | 0.01 | 73 | 1013.9 |
| 20260506223519 | 62 | 360 | 3.0 | 10.0 | 0.00 | 0.01 | 0.01 | 74 | 1013.8 |
| 20260506223037 | 62 | 0 | 1.0 | 6.0 | 0.00 | 0.01 | 0.01 | 74 | 1013.9 |
| 20260506222522 | 62 | 360 | 1.0 | 6.0 | 0.00 | 0.01 | 0.01 | 74 | 1013.9 |
| 20260506222023 | 62 | 360 | 0.0 | 6.0 | 0.00 | 0.01 | 0.01 | 74 | 1013.8 |
| 20260506221537 | 62 | 360 | 2.0 | 6.0 | 0.00 | 0.01 | 0.01 | 73 | 1013.7 |
| 20260506221026 | 62 | 360 | 2.0 | 6.0 | 0.00 | 0.01 | 0.01 | 73 | 1013.9 |
| 20260506220521 | 62 | 360 | 1.0 | 4.0 | 0.00 | 0.01 | 0.01 | 73 | 1013.9 |
| 20260506220036 | 62 | 0 | 0.0 | 5.0 | 0.00 | 0.01 | 0.01 | 74 | 1014.1 |
| 20260506215525 | 61 | 0 | 1.0 | 5.0 | 0.00 | 0.01 | 0.01 | 74 | 1013.9 |
| 20260506215023 | 61 | 360 | 2.0 | 6.0 | 0.00 | 0.01 | 0.01 | 73 | 1013.9 |
| 20260506214537 | 62 | 360 | 3.0 | 6.0 | 0.00 | 0.01 | 0.01 | 72 | 1014.0 |
| 20260506214018 | 62 | 360 | 0.0 | 5.0 | 0.00 | 0.01 | 0.01 | 73 | 1014.2 |
| 20260506213518 | 62 | 360 | 1.0 | 6.0 | 0.00 | 0.01 | 0.01 | 74 | 1014.1 |
| 20260506213038 | 61 | 360 | 1.0 | 6.0 | 0.00 | 0.01 | 0.01 | 74 | 1014.3 |
| 20260506212521 | 62 | 53 | 3.0 | 6.0 | 0.00 | 0.01 | 0.01 | 72 | 1014.2 |
| 20260506212018 | 62 | 0 | 1.0 | 9.0 | 0.00 | 0.01 | 0.01 | 73 | 1014.3 |
| 20260506211538 | 62 | 340 | 2.0 | 9.0 | 0.00 | 0.01 | 0.01 | 73 | 1014.0 |
| 20260506211022 | 62 | 45 | 2.0 | 5.0 | 0.00 | 0.01 | 0.01 | 72 | 1014.1 |
| 20260506210522 | 62 | 5 | 0.0 | 6.0 | 0.00 | 0.01 | 0.01 | 73 | 1014.1 |
| 20260506210038 | 62 | 34 | 2.0 | 6.0 | 0.00 | 0.01 | 0.01 | 73 | 1014.3 |
| 20260506205524 | 62 | 302 | 1.0 | 5.0 | 0.00 | 0.01 | 0.01 | 73 | 1014.2 |
| 20260506205021 | 62 | 279 | 1.0 | 10.0 | 0.00 | 0.01 | 0.01 | 73 | 1014.2 |
| 20260506204543 | 61 | 46 | 2.0 | 10.0 | 0.00 | 0.01 | 0.01 | 73 | 1014.1 |
| 20260506204021 | 61 | 311 | 2.0 | 11.0 | 0.00 | 0.01 | 0.01 | 73 | 1014.2 |
| 20260506203521 | 61 | 360 | 4.0 | 11.0 | 0.00 | 0.01 | 0.01 | 74 | 1014.2 |
| 20260506203037 | 61 | 19 | 2.0 | 7.0 | 0.00 | 0.01 | 0.01 | 75 | 1014.1 |
| 20260506202523 | 60 | 297 | 1.0 | 9.0 | 0.00 | 0.01 | 0.01 | 75 | 1014.4 |
| 20260506202020 | 60 | 360 | 2.0 | 9.0 | 0.00 | 0.01 | 0.01 | 75 | 1014.5 |
| 20260506201537 | 60 | 329 | 3.0 | 7.0 | 0.00 | 0.01 | 0.01 | 75 | 1014.8 |
| 20260506201021 | 60 | 314 | 3.0 | 10.0 | 0.00 | 0.01 | 0.01 | 75 | 1014.6 |
| 20260506200522 | 59 | 360 | 3.0 | 10.0 | 0.00 | 0.01 | 0.01 | 75 | 1014.6 |
| 20260506200039 | 60 | 56 | 2.0 | 8.0 | 0.00 | 0.01 | 0.01 | 75 | 1014.8 |
| 20260506195518 | 59 | 29 | 4.0 | 10.0 | 0.00 | 0.01 | 0.01 | 75 | 1015.0 |
| 20260506195018 | 59 | 5 | 3.0 | 10.0 | 0.00 | 0.01 | 0.01 | 76 | 1015.0 |
| 20260506194538 | 59 | 55 | 2.0 | 8.0 | 0.00 | 0.01 | 0.01 | 76 | 1014.7 |
| 20260506194021 | 59 | 360 | 1.0 | 12.0 | 0.00 | 0.01 | 0.01 | 78 | 1014.9 |
| 20260506193518 | 58 | 360 | 2.0 | 12.0 | 0.00 | 0.01 | 0.01 | 78 | 1014.9 |
| 20260506193037 | 58 | 360 | 3.0 | 9.0 | 0.00 | 0.01 | 0.01 | 78 | 1015.1 |
| 20260506192526 | 58 | 360 | 3.0 | 8.0 | 0.00 | 0.01 | 0.01 | 78 | 1015.1 |
| 20260506192022 | 57 | 0 | 2.0 | 8.0 | 0.00 | 0.01 | 0.01 | 79 | 1015.3 |
| 20260506191537 | 57 | 360 | 2.0 | 8.0 | 0.00 | 0.01 | 0.01 | 79 | 1015.1 |
| 20260506191021 | 57 | 360 | 1.0 | 8.0 | 0.00 | 0.01 | 0.01 | 80 | 1015.2 |
| 20260506190519 | 56 | 360 | 3.0 | 8.0 | 0.00 | 0.01 | 0.01 | 80 | 1015.2 |
| 20260506190037 | 56 | 360 | 1.0 | 6.0 | 0.00 | 0.01 | 0.01 | 81 | 1015.4 |
| 20260506185518 | 55 | 360 | 2.0 | 8.0 | 0.00 | 0.01 | 0.01 | 81 | 1015.4 |
| 20260506185019 | 55 | 9 | 2.0 | 8.0 | 0.00 | 0.01 | 0.01 | 81 | 1015.5 |
| 20260506184537 | 55 | 360 | 2.0 | 6.0 | 0.00 | 0.01 | 0.01 | 81 | 1015.6 |
| 20260506184018 | 55 | 331 | 2.0 | 6.0 | 0.00 | 0.01 | 0.01 | 81 | 1015.7 |
| 20260506183518 | 55 | 0 | 0.0 | 7.0 | 0.00 | 0.01 | 0.01 | 81 | 1015.9 |
| 20260506183039 | 55 | 360 | 2.0 | 7.0 | 0.00 | 0.01 | 0.01 | 81 | 1016.1 |
| 20260506182521 | 55 | 352 | 1.0 | 5.0 | 0.00 | 0.01 | 0.01 | 81 | 1015.9 |
| 20260506182022 | 55 | 342 | 1.0 | 8.0 | 0.00 | 0.01 | 0.01 | 81 | 1015.9 |
| 20260506181538 | 55 | 41 | 3.0 | 8.0 | 0.00 | 0.01 | 0.01 | 81 | 1016.0 |
| 20260506181022 | 55 | 5 | 3.0 | 6.0 | 0.00 | 0.01 | 0.01 | 81 | 1015.8 |
| 20260506180522 | 55 | 323 | 2.0 | 8.0 | 0.00 | 0.01 | 0.01 | 81 | 1016.1 |
| 20260506180046 | 55 | 0 | 1.0 | 8.0 | 0.00 | 0.01 | 0.01 | 81 | 1016.1 |
| 20260506175522 | 55 | 313 | 2.0 | 8.0 | 0.00 | 0.01 | 0.01 | 81 | 1016.0 |
| 20260506175023 | 55 | 326 | 2.0 | 7.0 | 0.00 | 0.01 | 0.01 | 81 | 1015.8 |
| 20260506174541 | 55 | 352 | 1.0 | 10.0 | 0.00 | 0.01 | 0.01 | 81 | 1015.6 |
| 20260506174021 | 55 | 352 | 1.0 | 10.0 | 0.00 | 0.01 | 0.01 | 82 | 1015.5 |
| 20260506173519 | 54 | 317 | 3.0 | 10.0 | 0.00 | 0.01 | 0.01 | 82 | 1014.9 |
| 20260506173039 | 54 | 0 | 2.0 | 14.0 | 0.00 | 0.01 | 0.01 | 82 | 1014.6 |
| 20260506172520 | 54 | 26 | 3.0 | 14.0 | 0.00 | 0.01 | 0.01 | 81 | 1014.6 |
| 20260506172021 | 54 | 67 | 3.0 | 10.0 | 0.00 | 0.01 | 0.01 | 81 | 1014.6 |
| 20260506171540 | 54 | 24 | 3.0 | 10.0 | 0.00 | 0.01 | 0.01 | 82 | 1014.4 |
| 20260506171018 | 54 | 350 | 3.0 | 10.0 | 0.00 | 0.01 | 0.01 | 82 | 1014.7 |
| 20260506170518 | 55 | 23 | 2.0 | 8.0 | 0.00 | 0.01 | 0.01 | 82 | 1014.6 |
| 20260506170050 | 54 | 314 | 1.0 | 9.0 | 0.00 | 0.01 | 0.01 | 82 | 1014.6 |
| 20260506165522 | 54 | 26 | 3.0 | 9.0 | 0.00 | 0.01 | 0.01 | 82 | 1014.9 |
| 20260506165018 | 54 | 19 | 3.0 | 9.0 | 0.00 | 0.01 | 0.01 | 82 | 1015.0 |
| 20260506164538 | 54 | 0 | 3.0 | 9.0 | 0.00 | 0.01 | 0.01 | 82 | 1015.2 |
| 20260506164022 | 54 | 360 | 1.0 | 7.0 | 0.00 | 0.01 | 0.01 | 82 | 1015.0 |
| 20260506163519 | 54 | 309 | 1.0 | 8.0 | 0.00 | 0.01 | 0.01 | 82 | 1014.9 |
| 20260506163056 | 54 | 15 | 2.0 | 8.0 | 0.00 | 0.01 | 0.01 | 82 | 1015.0 |
| 20260506162525 | 54 | 329 | 1.0 | 8.0 | 0.00 | 0.01 | 0.01 | 82 | 1015.0 |
| 20260506162024 | 54 | 30 | 1.0 | 10.0 | 0.00 | 0.01 | 0.01 | 82 | 1015.2 |
| 20260506161537 | 54 | 16 | 1.0 | 10.0 | 0.00 | 0.01 | 0.01 | 82 | 1015.3 |
| 20260506161021 | 54 | 360 | 2.0 | 10.0 | 0.00 | 0.01 | 0.01 | 82 | 1015.2 |
| 20260506160522 | 54 | 53 | 2.0 | 9.0 | 0.00 | 0.01 | 0.01 | 82 | 1015.3 |
| 20260506160036 | 54 | 9 | 1.0 | 9.0 | 0.00 | 0.01 | 0.01 | 82 | 1015.1 |
| 20260506155522 | 54 | 360 | 4.0 | 9.0 | 0.00 | 0.01 | 0.01 | 82 | 1015.0 |
| 20260506155018 | 54 | 360 | 1.0 | 11.0 | 0.00 | 0.01 | 0.01 | 82 | 1014.8 |
| 20260506154555 | 53 | 0 | 2.0 | 11.0 | 0.00 | 0.01 | 0.01 | 82 | 1014.9 |
| 20260506154026 | 53 | 18 | 4.0 | 8.0 | 0.00 | 0.01 | 0.01 | 82 | 1014.9 |
| 20260506153517 | 53 | 55 | 3.0 | 8.0 | 0.00 | 0.01 | 0.01 | 82 | 1015.3 |
| 20260506153049 | 53 | 303 | 0.0 | 12.0 | 0.00 | 0.01 | 0.01 | 82 | 1015.0 |
| 20260506152522 | 53 | 327 | 5.0 | 12.0 | 0.00 | 0.01 | 0.01 | 82 | 1014.6 |
| 20260506152023 | 52 | 5 | 2.0 | 12.0 | 0.00 | 0.01 | 0.01 | 82 | 1014.3 |
| 20260506151538 | 52 | 27 | 7.0 | 12.0 | 0.01 | 0.01 | 0.01 | 82 | 1014.2 |
| 20260506151021 | 52 | 16 | 4.0 | 13.0 | 0.01 | 0.01 | 0.01 | 82 | 1014.2 |
| 20260506150522 | 52 | 13 | 4.0 | 13.0 | 0.01 | 0.01 | 0.01 | 82 | 1013.8 |
| 20260506150037 | 52 | 28 | 4.0 | 10.0 | 0.01 | 0.01 | 0.01 | 82 | 1013.9 |
| 20260506145525 | 52 | 18 | 2.0 | 9.0 | 0.01 | 0.01 | 0.01 | 82 | 1015.8 |
| 20260506145021 | 52 | 323 | 2.0 | 9.0 | 0.01 | 0.01 | 0.01 | 82 | 1016.0 |
| 20260506144537 | 52 | 291 | 3.0 | 7.0 | 0.01 | 0.01 | 0.01 | 82 | 1016.2 |
| 20260506144021 | 52 | 336 | 2.0 | 7.0 | 0.01 | 0.01 | 0.01 | 82 | 1016.4 |
| 20260506143522 | 53 | 59 | 1.0 | 7.0 | 0.01 | 0.01 | 0.01 | 82 | 1015.5 |
| 20260506143046 | 53 | 332 | 1.0 | 8.0 | 0.01 | 0.01 | 0.01 | 82 | 1015.9 |
| 20260506142522 | 53 | 297 | 2.0 | 8.0 | 0.01 | 0.01 | 0.01 | 82 | 1015.7 |
| 20260506142019 | 53 | 11 | 2.0 | 8.0 | 0.01 | 0.01 | 0.01 | 82 | 1015.5 |
| 20260506141542 | 53 | 315 | 2.0 | 12.0 | 0.00 | 0.00 | 0.00 | 81 | 1015.4 |
| 20260506141021 | 53 | 9 | 2.0 | 12.0 | 0.00 | 0.00 | 0.00 | 81 | 1015.9 |
| 20260506140525 | 53 | 21 | 3.0 | 9.0 | 0.00 | 0.00 | 0.00 | 80 | 1016.4 |
| 20260506140039 | 53 | 338 | 2.0 | 9.0 | 0.00 | 0.00 | 0.00 | 80 | 1016.9 |
| 20260506135522 | 53 | 298 | 2.0 | 10.0 | 0.00 | 0.00 | 0.00 | 80 | 1015.9 |
| 20260506135022 | 54 | 298 | 2.0 | 10.0 | 0.00 | 0.00 | 0.00 | 80 | 1015.6 |
| 20260506134537 | 54 | 308 | 4.0 | 10.0 | 0.00 | 0.00 | 0.00 | 80 | 1014.4 |
| 20260506134025 | 54 | 352 | 3.0 | 12.0 | 0.00 | 0.00 | 0.00 | 80 | 1013.3 |
| 20260506133518 | 54 | 10 | 2.0 | 12.0 | 0.00 | 0.00 | 0.00 | 79 | 1014.8 |
| 20260506133039 | 54 | 344 | 2.0 | 9.0 | 0.00 | 0.00 | 0.00 | 79 | 1014.6 |
| 20260506132520 | 54 | 337 | 1.0 | 6.0 | 0.00 | 0.00 | 0.00 | 79 | 1014.6 |
| 20260506132021 | 54 | 343 | 2.0 | 7.0 | 0.00 | 0.00 | 0.00 | 79 | 1014.6 |
| 20260506131551 | 55 | 17 | 2.0 | 8.0 | 0.00 | 0.00 | 0.00 | 79 | 1014.9 |
| 20260506131023 | 55 | 333 | 1.0 | 10.0 | 0.00 | 0.00 | 0.00 | 79 | 1014.2 |
| 20260506130519 | 55 | 5 | 3.0 | 10.0 | 0.00 | 0.00 | 0.00 | 78 | 1014.1 |
| 20260506130037 | 55 | 5 | 2.0 | 8.0 | 0.00 | 0.00 | 0.00 | 78 | 1014.0 |
| 20260506125518 | 55 | 325 | 1.0 | 8.0 | 0.00 | 0.00 | 0.00 | 78 | 1013.7 |
| 20260506125018 | 55 | 15 | 2.0 | 8.0 | 0.00 | 0.00 | 0.00 | 78 | 1013.7 |
| 20260506124536 | 55 | 33 | 3.0 | 9.0 | 0.00 | 0.00 | 0.00 | 78 | 1013.5 |
| 20260506124018 | 55 | 10 | 2.0 | 9.0 | 0.00 | 0.00 | 0.00 | 77 | 1013.3 |
| 20260506123521 | 56 | 330 | 2.0 | 9.0 | 0.00 | 0.00 | 0.00 | 77 | 1013.4 |
| 20260506123038 | 56 | 40 | 3.0 | 11.0 | 0.00 | 0.00 | 0.00 | 77 | 1013.1 |
| 20260506122523 | 56 | 342 | 2.0 | 11.0 | 0.00 | 0.00 | 0.00 | 77 | 1013.2 |
| 20260506122021 | 56 | 305 | 2.0 | 11.0 | 0.00 | 0.00 | 0.00 | 77 | 1013.1 |
| 20260506121542 | 56 | 333 | 1.0 | 8.0 | 0.00 | 0.00 | 0.00 | 77 | 1013.0 |
| 20260506121022 | 57 | 292 | 1.0 | 8.0 | 0.00 | 0.00 | 0.00 | 76 | 1012.8 |
| 20260506120521 | 57 | 296 | 3.0 | 7.0 | 0.00 | 0.00 | 0.00 | 76 | 1012.8 |
| 20260506120037 | 57 | 313 | 1.0 | 7.0 | 0.00 | 0.00 | 0.00 | 76 | 1012.7 |
| 20260506115522 | 57 | 294 | 2.0 | 7.0 | 0.00 | 0.00 | 0.00 | 76 | 1012.6 |
| 20260506115021 | 57 | 24 | 1.0 | 6.0 | 0.00 | 0.00 | 0.00 | 76 | 1012.7 |
| 20260506114544 | 58 | 319 | 2.0 | 6.0 | 0.00 | 0.00 | 0.00 | 75 | 1012.7 |
| 20260506114021 | 58 | 331 | 1.0 | 9.0 | 0.00 | 0.00 | 0.00 | 76 | 1012.7 |
| 20260506113521 | 58 | 360 | 2.0 | 9.0 | 0.00 | 0.00 | 0.00 | 76 | 1012.6 |
| 20260506113036 | 59 | 352 | 2.0 | 9.0 | 0.00 | 0.00 | 0.00 | 76 | 1012.6 |
| 20260506112521 | 59 | 328 | 3.0 | 9.0 | 0.00 | 0.00 | 0.00 | 76 | 1012.8 |
| 20260506112025 | 59 | 324 | 1.0 | 5.0 | 0.00 | 0.00 | 0.00 | 77 | 1012.6 |
| 20260506111538 | 59 | 14 | 1.0 | 5.0 | 0.00 | 0.00 | 0.00 | 77 | 1012.6 |
| 20260506111022 | 59 | 329 | 1.0 | 5.0 | 0.00 | 0.00 | 0.00 | 77 | 1012.4 |
| 20260506110525 | 59 | 0 | 1.0 | 5.0 | 0.00 | 0.00 | 0.00 | 77 | 1012.5 |
| 20260506110038 | 59 | 349 | 1.0 | 8.0 | 0.00 | 0.00 | 0.00 | 77 | 1012.4 |
| 20260506105521 | 59 | 346 | 1.0 | 8.0 | 0.00 | 0.00 | 0.00 | 77 | 1012.2 |
| 20260506105022 | 59 | 320 | 2.0 | 5.0 | 0.00 | 0.00 | 0.00 | 77 | 1012.1 |
| 20260506104538 | 59 | 11 | 3.0 | 5.0 | 0.00 | 0.00 | 0.00 | 77 | 1011.8 |
| 20260506104021 | 59 | 27 | 1.0 | 5.0 | 0.00 | 0.00 | 0.00 | 77 | 1011.9 |
| 20260506103522 | 60 | 13 | 1.0 | 10.0 | 0.00 | 0.00 | 0.00 | 77 | 1011.7 |
| 20260506103037 | 60 | 339 | 1.0 | 10.0 | 0.00 | 0.00 | 0.00 | 77 | 1011.5 |
| 20260506102524 | 60 | 30 | 2.0 | 9.0 | 0.00 | 0.00 | 0.00 | 77 | 1011.4 |
| 20260506102022 | 60 | 49 | 3.0 | 9.0 | 0.00 | 0.00 | 0.00 | 77 | 1011.4 |
| 20260506101537 | 60 | 5 | 2.0 | 7.0 | 0.00 | 0.00 | 0.00 | 77 | 1011.5 |
| 20260506101021 | 60 | 24 | 1.0 | 4.0 | 0.00 | 0.00 | 0.00 | 77 | 1011.4 |
| 20260506100518 | 60 | 0 | 1.0 | 4.0 | 0.00 | 0.00 | 0.00 | 77 | 1011.4 |
| 20260506100036 | 60 | 34 | 1.0 | 4.0 | 0.00 | 0.00 | 0.00 | 77 | 1011.4 |
| 20260506095518 | 60 | 316 | 1.0 | 6.0 | 0.00 | 0.00 | 0.00 | 77 | 1011.2 |
| 20260506095022 | 60 | 336 | 1.0 | 6.0 | 0.00 | 0.00 | 0.00 | 77 | 1011.1 |
| 20260506094559 | 61 | 360 | 1.0 | 6.0 | 0.00 | 0.00 | 0.00 | 77 | 1011.2 |
| 20260506094019 | 61 | 0 | 0.0 | 4.0 | 0.00 | 0.00 | 0.00 | 77 | 1011.1 |
| 20260506093518 | 61 | 346 | 1.0 | 5.0 | 0.00 | 0.00 | 0.00 | 77 | 1010.9 |
| 20260506093038 | 61 | 15 | 1.0 | 5.0 | 0.00 | 0.00 | 0.00 | 77 | 1010.7 |
| 20260506092522 | 61 | 0 | 1.0 | 5.0 | 0.00 | 0.00 | 0.00 | 77 | 1010.7 |
| 20260506092019 | 61 | 0 | 1.0 | 6.0 | 0.00 | 0.00 | 0.00 | 77 | 1010.7 |
| 20260506091538 | 61 | 323 | 1.0 | 6.0 | 0.00 | 0.00 | 0.00 | 77 | 1010.7 |
| 20260506091021 | 61 | 322 | 1.0 | 4.0 | 0.00 | 0.00 | 0.00 | 77 | 1010.6 |
| 20260506090521 | 61 | 15 | 1.0 | 5.0 | 0.00 | 0.00 | 0.00 | 77 | 1010.8 |
| 20260506090037 | 61 | 344 | 0.0 | 8.0 | 0.00 | 0.00 | 0.00 | 77 | 1010.8 |
| 20260506085521 | 61 | 352 | 2.0 | 8.0 | 0.00 | 0.00 | 0.00 | 76 | 1010.9 |
| 20260506085020 | 61 | 46 | 2.0 | 6.0 | 0.00 | 0.00 | 0.00 | 76 | 1010.8 |
| 20260506084537 | 61 | 43 | 1.0 | 3.0 | 0.00 | 0.00 | 0.00 | 76 | 1010.8 |
| 20260506084021 | 61 | 25 | 1.0 | 6.0 | 0.00 | 0.00 | 0.00 | 77 | 1010.8 |
| 20260506083521 | 61 | 22 | 1.0 | 6.0 | 0.00 | 0.00 | 0.00 | 76 | 1010.7 |
| 20260506083037 | 61 | 5 | 2.0 | 8.0 | 0.00 | 0.00 | 0.00 | 76 | 1010.6 |
| 20260506082518 | 62 | 5 | 2.0 | 8.0 | 0.00 | 0.00 | 0.00 | 76 | 1010.6 |
| 20260506082022 | 62 | 5 | 1.0 | 5.0 | 0.00 | 0.00 | 0.00 | 76 | 1010.5 |
| 20260506081537 | 62 | 5 | 1.0 | 5.0 | 0.00 | 0.00 | 0.00 | 76 | 1010.6 |
| 20260506081020 | 62 | 49 | 2.0 | 5.0 | 0.00 | 0.00 | 0.00 | 76 | 1010.5 |
| 20260506080522 | 62 | 11 | 1.0 | 5.0 | 0.00 | 0.00 | 0.00 | 76 | 1010.6 |
| 20260506073524 | 63 | 344 | 1.0 | 5.0 | 0.00 | 0.00 | 0.00 | 76 | 1010.4 |
| 20260506073042 | 63 | 360 | 1.0 | 7.0 | 0.00 | 0.00 | 0.00 | 76 | 1010.3 |
| 20260506072521 | 63 | 0 | 0.0 | 7.0 | 0.00 | 0.00 | 0.00 | 75 | 1010.4 |
| 20260506072021 | 63 | 39 | 3.0 | 8.0 | 0.00 | 0.00 | 0.00 | 75 | 1010.2 |
| 20260506071537 | 63 | 38 | 3.0 | 8.0 | 0.00 | 0.00 | 0.00 | 75 | 1010.2 |
| 20260506071018 | 63 | 38 | 3.0 | 6.0 | 0.00 | 0.00 | 0.00 | 75 | 1010.3 |
| 20260506070521 | 63 | 15 | 2.0 | 6.0 | 0.00 | 0.00 | 0.00 | 75 | 1010.2 |
| 20260506062022 | 64 | 349 | 1.0 | 5.0 | 0.00 | 0.00 | 0.00 | 74 | 1010.1 |
| 20260506061538 | 64 | 5 | 1.0 | 4.0 | 0.00 | 0.00 | 0.00 | 73 | 1009.8 |
| 20260506061022 | 64 | 340 | 0.0 | 3.0 | 0.00 | 0.00 | 0.00 | 74 | 1010.0 |
| 20260506060520 | 64 | 352 | 1.0 | 4.0 | 0.00 | 0.00 | 0.00 | 73 | 1009.9 |
| 20260506051021 | 66 | 298 | 1.0 | 6.0 | 0.00 | 0.00 | 0.00 | 71 | 1010.1 |
| 20260506050526 | 66 | 5 | 1.0 | 6.0 | 0.00 | 0.00 | 0.00 | 71 | 1010.0 |
| 20260506045022 | 67 | 22 | 1.0 | 6.0 | 0.00 | 0.00 | 0.00 | 70 | 1009.9 |
| 20260506044545 | 67 | 11 | 1.0 | 7.0 | 0.00 | 0.00 | 0.00 | 70 | 1009.9 |
| 20260506044021 | 67 | 352 | 1.0 | 9.0 | 0.00 | 0.00 | 0.00 | 70 | 1009.6 |
| 20260506043520 | 67 | 5 | 2.0 | 10.0 | 0.00 | 0.00 | 0.00 | 70 | 1009.9 |
| 20260506043037 | 67 | 40 | 3.0 | 10.0 | 0.00 | 0.00 | 0.00 | 69 | 1009.8 |
| 20260506042521 | 68 | 19 | 2.0 | 8.0 | 0.00 | 0.00 | 0.00 | 69 | 1009.8 |
| 20260506042023 | 68 | 0 | 2.0 | 12.0 | 0.00 | 0.00 | 0.00 | 69 | 1009.9 |
| 20260506041536 | 68 | 11 | 3.0 | 12.0 | 0.00 | 0.00 | 0.00 | 69 | 1009.8 |
| 20260506041018 | 68 | 360 | 2.0 | 11.0 | 0.00 | 0.00 | 0.00 | 69 | 1009.8 |
| 20260506040522 | 68 | 0 | 1.0 | 6.0 | 0.00 | 0.00 | 0.00 | 69 | 1009.8 |
| 20260506040056 | 69 | 0 | 1.0 | 8.0 | 0.00 | 0.00 | 0.00 | 69 | 1010.1 |
| 20260506035522 | 69 | 5 | 3.0 | 8.0 | 0.00 | 0.00 | 0.00 | 68 | 1009.8 |
| 20260506035022 | 69 | 5 | 2.0 | 8.0 | 0.00 | 0.00 | 0.00 | 68 | 1009.7 |
| 20260506034558 | 69 | 5 | 2.0 | 8.0 | 0.00 | 0.00 | 0.00 | 68 | 1009.8 |
| 20260506034022 | 70 | 304 | 2.0 | 7.0 | 0.00 | 0.00 | 0.00 | 68 | 1009.7 |
| 20260506033522 | 70 | 350 | 2.0 | 8.0 | 0.00 | 0.00 | 0.00 | 68 | 1009.6 |
| 20260506033039 | 70 | 34 | 1.0 | 8.0 | 0.00 | 0.00 | 0.00 | 68 | 1009.3 |
| 20260506032522 | 70 | 5 | 2.0 | 5.0 | 0.00 | 0.00 | 0.00 | 68 | 1009.3 |
| 20260506032022 | 70 | 304 | 1.0 | 4.0 | 0.00 | 0.00 | 0.00 | 68 | 1009.1 |
| 20260506031553 | 70 | 0 | 1.0 | 4.0 | 0.00 | 0.00 | 0.00 | 68 | 1008.9 |
| 20260506031025 | 71 | 0 | 0.0 | 9.0 | 0.00 | 0.00 | 0.00 | 68 | 1008.7 |
| 20260506030522 | 71 | 0 | 0.0 | 9.0 | 0.00 | 0.00 | 0.00 | 67 | 1008.6 |
| 20260506030038 | 71 | 22 | 2.0 | 6.0 | 0.00 | 0.00 | 0.00 | 67 | 1008.6 |
| 20260506025520 | 71 | 0 | 1.0 | 5.0 | 0.00 | 0.00 | 0.00 | 67 | 1008.3 |
| 20260506025021 | 71 | 329 | 0.0 | 2.0 | 0.00 | 0.00 | 0.00 | 66 | 1008.1 |
| 20260506024537 | 71 | 0 | 0.0 | 3.0 | 0.00 | 0.00 | 0.00 | 66 | 1008.0 |
| 20260506024020 | 71 | 0 | 0.0 | 4.0 | 0.00 | 0.00 | 0.00 | 66 | 1008.1 |
| 20260506023523 | 71 | 5 | 1.0 | 4.0 | 0.00 | 0.00 | 0.00 | 66 | 1008.1 |
| 20260506023040 | 72 | 314 | 0.0 | 4.0 | 0.00 | 0.00 | 0.00 | 65 | 1007.9 |
| 20260506022521 | 72 | 323 | 0.0 | 5.0 | 0.00 | 0.00 | 0.00 | 64 | 1007.8 |
| 20260506022020 | 72 | 346 | 1.0 | 5.0 | 0.00 | 0.00 | 0.00 | 64 | 1007.5 |
| 20260506021538 | 73 | 323 | 0.0 | 5.0 | 0.00 | 0.00 | 0.00 | 64 | 1007.4 |
| 20260506021022 | 73 | 311 | 1.0 | 10.0 | 0.00 | 0.00 | 0.00 | 64 | 1007.5 |
| 20260506020521 | 73 | 0 | 2.0 | 10.0 | 0.00 | 0.00 | 0.00 | 63 | 1007.4 |
| 20260506020039 | 74 | 321 | 1.0 | 3.0 | 0.00 | 0.00 | 0.00 | 64 | 1007.4 |
| 20260506015522 | 74 | 0 | 0.0 | 6.0 | 0.00 | 0.00 | 0.00 | 63 | 1007.1 |
| 20260506015019 | 74 | 0 | 0.0 | 6.0 | 0.00 | 0.00 | 0.00 | 63 | 1007.0 |
| 20260506014535 | 75 | 332 | 1.0 | 5.0 | 0.00 | 0.00 | 0.00 | 62 | 1006.9 |
| 20260506014021 | 75 | 0 | 0.0 | 5.0 | 0.00 | 0.00 | 0.00 | 61 | 1006.9 |
| 20260506013521 | 75 | 5 | 1.0 | 5.0 | 0.00 | 0.00 | 0.00 | 62 | 1006.6 |
| 20260506013037 | 76 | 279 | 1.0 | 7.0 | 0.00 | 0.00 | 0.00 | 61 | 1006.5 |
| 20260506012521 | 76 | 5 | 2.0 | 7.0 | 0.00 | 0.00 | 0.00 | 61 | 1006.0 |
| 20260506012022 | 77 | 15 | 2.0 | 12.0 | 0.00 | 0.00 | 0.00 | 61 | 1005.9 |
| 20260506011538 | 77 | 0 | 4.0 | 12.0 | 0.00 | 0.00 | 0.00 | 60 | 1005.8 |
| 20260506011023 | 78 | 5 | 1.0 | 10.0 | 0.00 | 0.00 | 0.00 | 60 | 1005.7 |
| 20260506010522 | 78 | 19 | 3.0 | 11.0 | 0.00 | 0.00 | 0.00 | 59 | 1005.6 |
| 20260506010043 | 79 | 344 | 4.0 | 11.0 | 0.00 | 0.00 | 0.00 | 59 | 1005.6 |
| 20260506005522 | 80 | 278 | 5.0 | 11.0 | 0.00 | 0.00 | 0.00 | 58 | 1005.6 |
| 20260506005022 | 80 | 206 | 3.0 | 10.0 | 0.00 | 0.00 | 0.00 | 58 | 1005.5 |
| 20260506004538 | 81 | 299 | 3.0 | 13.0 | 0.00 | 0.00 | 0.00 | 57 | 1005.3 |
| 20260506004025 | 82 | 304 | 5.0 | 13.0 | 0.00 | 0.00 | 0.00 | 56 | 1005.2 |
| 20260506003519 | 83 | 350 | 4.0 | 12.0 | 0.00 | 0.00 | 0.00 | 55 | 1005.0 |
| 20260506003038 | 84 | 40 | 3.0 | 12.0 | 0.00 | 0.00 | 0.00 | 54 | 1005.0 |
| 20260506002521 | 84 | 325 | 4.0 | 12.0 | 0.00 | 0.00 | 0.00 | 52 | 1004.9 |
| 20260506002020 | 85 | 11 | 3.0 | 13.0 | 0.00 | 0.00 | 0.00 | 50 | 1004.9 |
| 20260506001537 | 87 | 360 | 4.0 | 13.0 | 0.00 | 0.00 | 0.00 | 47 | 1004.8 |
| 20260506001022 | 89 | 21 | 3.0 | 10.0 | 0.00 | 0.00 | 0.00 | 44 | 1004.8 |
| 20260506000521 | 92 | 321 | 2.0 | 10.0 | 0.00 | 0.00 | 0.00 | 40 | 1004.9 |
| 20260506000037 | 93 | 255 | 0.0 | 2.0 | 0.00 | 0.00 | 0.00 | 40 | 1004.7 |
| 20260505235521 | 93 | 0 | 0.0 | 3.0 | 0.00 | 0.00 | 0.00 | 39 | 1004.7 |
| 20260505235020 | 93 | 0 | 0.0 | 4.0 | 0.00 | 0.00 | 0.00 | 39 | 1004.6 |
| 20260505234542 | 93 | 262 | 0.0 | 4.0 | 0.00 | 0.00 | 0.00 | 40 | 1004.5 |
| 20260505234019 | 93 | 251 | 0.0 | 4.0 | 0.00 | 0.00 | 0.00 | 39 | 1004.5 |
| 20260505233519 | 93 | 264 | 0.0 | 4.0 | 0.00 | 0.00 | 0.00 | 39 | 1004.3 |
| 20260505233041 | 93 | 0 | 0.0 | 6.0 | 0.00 | 0.00 | 0.00 | 39 | 1004.3 |
| 20260505232522 | 93 | 192 | 1.0 | 6.0 | 0.00 | 0.00 | 0.00 | 39 | 1004.3 |
| 20260505232022 | 93 | 132 | 0.0 | 5.0 | 0.00 | 0.00 | 0.00 | 38 | 1004.3 |